{"data":{"norad_id":67728,"intl_designator":"2026-026H","name":"STARLINK-36757","alt_names":[],"object_type":"PAYLOAD","status":"ACTIVE","operator":null,"country":"US","launch_date":"2026-02-11","launch_site_code":"AFWTR","launch_vehicle":null,"mission":null,"orbit_class":"UNKNOWN","rcs_meters":null,"size_class":null,"mass_kg":null,"dimensions":null,"purposes":["comms"],"wikipedia_slug":null,"has_3d_model":false,"image_url":null,"decayed_at":null,"tle_current":{"epoch":"2026-05-25T03:49:21.144000Z","epoch_age_seconds":55115,"freshness":"FRESH","line1":"1 67728U 26026H   26145.15927250  .00023667  00000+0  73301-3 0  9995","line2":"2 67728  97.2851 198.6597 0000636 105.1199 255.0114 15.33450759 15848","mean_motion":15.33450759,"eccentricity":6.36e-5,"inclination_deg":97.2851,"raan_deg":198.6597,"arg_perigee_deg":105.1199,"mean_anomaly_deg":255.0114,"bstar":0.00073301,"rev_number":1584,"period_min":93.905851984387,"perigee_km":465.09078283023,"apogee_km":465.96129676889,"semimajor_km":6843.6630397996,"source":"CELESTRAK","updated_at":"2026-05-25T13:38:21.686488Z"}}}